Powrót do katalogu

STARLINK-30881

AktywnyŁącznośćVLEO
NORAD 58251·PAYLOAD·🇺🇸 United States

Wystrzelony Nov 8, 2023 z Cape Canaveral Space Force Station

Loading…

Następne Przeloty (najbliższe 24 godziny)

TLE

ŚwieżeSource: CelesTrak SupGP

Epoka: Sep 15, 2026, 02:44 UTC

1 58251C 23171X   26258.11437500  .00026676  00000+0  96608-3 0  2585
2 58251  43.0008 295.4451 0001470 262.1534 100.3518 15.27569536    11

Śledź STARLINK-30881 w czasie rzeczywistym z AllMySat

Download on the App Store